Year,Month,Day,Hour,Minute,Value (Times are PST for temperature in C)
2021,08,20,00,00,17.60
2021,08,20,00,01,17.60
2021,08,20,00,02,17.60
2021,08,20,00,03,17.50
2021,08,20,00,04,17.50
2021,08,20,00,05,17.50
2021,08,20,00,06,17.50
2021,08,20,00,07,17.50
2021,08,20,00,08,17.50
2021,08,20,00,09,17.50
2021,08,20,00,10,17.50
2021,08,20,00,11,17.50
2021,08,20,00,12,17.50
2021,08,20,00,13,17.50
2021,08,20,00,14,17.50
2021,08,20,00,15,17.50
2021,08,20,00,16,17.50
2021,08,20,00,17,17.40
2021,08,20,00,18,17.40
2021,08,20,00,19,17.40
2021,08,20,00,20,17.40
2021,08,20,00,21,17.40
2021,08,20,00,22,17.40
2021,08,20,00,23,17.40
2021,08,20,00,24,17.40
2021,08,20,00,25,17.40
2021,08,20,00,26,17.40
2021,08,20,00,27,17.40
2021,08,20,00,28,17.40
2021,08,20,00,29,17.40
2021,08,20,00,30,17.40
2021,08,20,00,31,17.40
2021,08,20,00,32,17.40
2021,08,20,00,33,17.30
2021,08,20,00,34,17.30
2021,08,20,00,35,17.30
2021,08,20,00,36,17.30
2021,08,20,00,37,17.30
2021,08,20,00,38,17.30
2021,08,20,00,39,17.30
2021,08,20,00,40,17.20
2021,08,20,00,41,17.20
2021,08,20,00,42,17.20
2021,08,20,00,43,17.20
2021,08,20,00,44,17.20
2021,08,20,00,45,17.20
2021,08,20,00,46,17.20
2021,08,20,00,47,17.20
2021,08,20,00,48,17.20
2021,08,20,00,49,17.20
2021,08,20,00,50,17.10
2021,08,20,00,51,17.10
2021,08,20,00,52,17.10
2021,08,20,00,53,17.10
2021,08,20,00,54,17.10
2021,08,20,00,55,17.10
2021,08,20,00,56,17.10
2021,08,20,00,57,17.10
2021,08,20,00,58,17.10
2021,08,20,00,59,17.10
2021,08,20,01,00,17.10
2021,08,20,01,01,17.00
2021,08,20,01,02,17.00
2021,08,20,01,03,17.00
2021,08,20,01,04,17.00
2021,08,20,01,05,16.90
2021,08,20,01,06,16.90
2021,08,20,01,07,16.90
2021,08,20,01,08,16.90
2021,08,20,01,09,16.90
2021,08,20,01,10,16.90
2021,08,20,01,11,16.90
2021,08,20,01,12,16.80
2021,08,20,01,13,16.80
2021,08,20,01,14,16.80
2021,08,20,01,15,16.80
2021,08,20,01,16,16.80
2021,08,20,01,17,16.80
2021,08,20,01,18,16.80
2021,08,20,01,19,16.80
2021,08,20,01,20,16.70
2021,08,20,01,21,16.70
2021,08,20,01,22,16.70
2021,08,20,01,23,16.70
2021,08,20,01,24,16.70
2021,08,20,01,25,16.70
2021,08,20,01,26,16.70
2021,08,20,01,27,16.70
2021,08,20,01,28,16.70
2021,08,20,01,29,16.70
2021,08,20,01,30,16.70
2021,08,20,01,31,16.70
2021,08,20,01,32,16.70
2021,08,20,01,33,16.70
2021,08,20,01,34,16.70
2021,08,20,01,35,16.70
2021,08,20,01,36,16.70
2021,08,20,01,37,16.70
2021,08,20,01,38,16.70
2021,08,20,01,39,16.60
2021,08,20,01,40,16.60
2021,08,20,01,41,16.60
2021,08,20,01,42,16.60
2021,08,20,01,43,16.60
2021,08,20,01,44,16.60
2021,08,20,01,45,16.60
2021,08,20,01,46,16.60
2021,08,20,01,47,16.60
2021,08,20,01,48,16.60
2021,08,20,01,49,16.50
2021,08,20,01,50,16.50
2021,08,20,01,51,16.50
2021,08,20,01,52,16.40
2021,08,20,01,53,16.40
2021,08,20,01,54,16.40
2021,08,20,01,55,16.40
2021,08,20,01,56,16.40
2021,08,20,01,57,16.30
2021,08,20,01,58,16.30
2021,08,20,01,59,16.30
2021,08,20,02,00,16.30
2021,08,20,02,01,16.30
2021,08,20,02,02,16.30
2021,08,20,02,03,16.30
2021,08,20,02,04,16.30
2021,08,20,02,05,16.30
2021,08,20,02,06,16.20
2021,08,20,02,07,16.20
2021,08,20,02,08,16.20
2021,08,20,02,09,16.20
2021,08,20,02,10,16.20
2021,08,20,02,11,16.20
2021,08,20,02,12,16.20
2021,08,20,02,13,16.20
2021,08,20,02,14,16.10
2021,08,20,02,15,16.10
2021,08,20,02,16,16.10
2021,08,20,02,17,16.10
2021,08,20,02,18,16.10
2021,08,20,02,19,16.10
2021,08,20,02,20,16.10
2021,08,20,02,21,16.10
2021,08,20,02,22,16.10
2021,08,20,02,23,16.10
2021,08,20,02,24,16.00
2021,08,20,02,25,16.00
2021,08,20,02,26,16.00
2021,08,20,02,27,16.00
2021,08,20,02,28,15.90
2021,08,20,02,29,15.90
2021,08,20,02,30,15.90
2021,08,20,02,31,15.90
2021,08,20,02,32,15.90
2021,08,20,02,33,15.80
2021,08,20,02,34,15.80
2021,08,20,02,35,15.80
2021,08,20,02,36,15.80
2021,08,20,02,37,15.80
2021,08,20,02,38,15.80
2021,08,20,02,39,15.70
2021,08,20,02,40,15.70
2021,08,20,02,41,15.70
2021,08,20,02,42,15.70
2021,08,20,02,43,15.70
2021,08,20,02,44,15.60
2021,08,20,02,45,15.60
2021,08,20,02,46,15.60
2021,08,20,02,47,15.60
2021,08,20,02,48,15.60
2021,08,20,02,49,15.60
2021,08,20,02,50,15.60
2021,08,20,02,51,15.60
2021,08,20,02,52,15.60
2021,08,20,02,53,15.60
2021,08,20,02,54,15.60
2021,08,20,02,55,15.60
2021,08,20,02,56,15.60
2021,08,20,02,57,15.60
2021,08,20,02,58,15.60
2021,08,20,02,59,15.60
2021,08,20,03,00,15.60
2021,08,20,03,01,15.60
2021,08,20,03,02,15.60
2021,08,20,03,03,15.60
2021,08,20,03,04,15.60
2021,08,20,03,05,15.60
2021,08,20,03,06,15.60
2021,08,20,03,07,15.60
2021,08,20,03,08,15.60
2021,08,20,03,09,15.60
2021,08,20,03,10,15.60
2021,08,20,03,11,15.60
2021,08,20,03,12,15.60
2021,08,20,03,13,15.60
2021,08,20,03,14,15.60
2021,08,20,03,15,15.60
2021,08,20,03,16,15.50
2021,08,20,03,17,15.50
2021,08,20,03,18,15.50
2021,08,20,03,19,15.40
2021,08,20,03,20,15.40
2021,08,20,03,21,15.40
2021,08,20,03,22,15.40
2021,08,20,03,23,15.40
2021,08,20,03,24,15.30
2021,08,20,03,25,15.30
2021,08,20,03,26,15.30
2021,08,20,03,27,15.30
2021,08,20,03,28,15.30
2021,08,20,03,29,15.30
2021,08,20,03,30,15.20
2021,08,20,03,31,15.20
2021,08,20,03,32,15.20
2021,08,20,03,33,15.20
2021,08,20,03,34,15.20
2021,08,20,03,35,15.20
2021,08,20,03,36,15.20
2021,08,20,03,37,15.20
2021,08,20,03,38,15.10
2021,08,20,03,39,15.10
2021,08,20,03,40,15.10
2021,08,20,03,41,15.00
2021,08,20,03,42,15.00
2021,08,20,03,43,15.00
2021,08,20,03,44,15.00
2021,08,20,03,45,15.10
2021,08,20,03,46,15.10
2021,08,20,03,47,15.10
2021,08,20,03,48,15.10
2021,08,20,03,49,15.00
2021,08,20,03,50,15.00
2021,08,20,03,51,15.00
2021,08,20,03,52,15.00
2021,08,20,03,53,15.00
2021,08,20,03,54,14.90
2021,08,20,03,55,14.90
2021,08,20,03,56,14.90
2021,08,20,03,57,14.90
2021,08,20,03,58,14.80
2021,08,20,03,59,14.80
2021,08,20,04,00,14.80
2021,08,20,04,01,14.70
2021,08,20,04,02,14.70
2021,08,20,04,03,14.70
2021,08,20,04,04,14.60
2021,08,20,04,05,14.60
2021,08,20,04,06,14.50
2021,08,20,04,07,14.50
2021,08,20,04,08,14.40
2021,08,20,04,09,14.40
2021,08,20,04,10,14.40
2021,08,20,04,11,14.30
2021,08,20,04,12,14.30
2021,08,20,04,13,14.30
2021,08,20,04,14,14.30
2021,08,20,04,15,14.20
2021,08,20,04,16,14.20
2021,08,20,04,17,14.20
2021,08,20,04,18,14.20
2021,08,20,04,19,14.20
2021,08,20,04,20,14.10
2021,08,20,04,21,14.10
2021,08,20,04,22,14.10
2021,08,20,04,23,14.10
2021,08,20,04,24,14.00
2021,08,20,04,25,14.00
2021,08,20,04,26,14.00
2021,08,20,04,27,14.00
2021,08,20,04,28,14.00
2021,08,20,04,29,14.00
2021,08,20,04,30,13.90
2021,08,20,04,31,13.90
2021,08,20,04,32,13.90
2021,08,20,04,33,13.90
2021,08,20,04,34,13.80
2021,08,20,04,35,13.80
2021,08,20,04,36,13.80
2021,08,20,04,37,13.80
2021,08,20,04,38,13.80
2021,08,20,04,39,13.80
2021,08,20,04,40,13.70
2021,08,20,04,41,13.70
2021,08,20,04,42,13.70
2021,08,20,04,43,13.70
2021,08,20,04,44,13.60
2021,08,20,04,45,13.60
2021,08,20,04,46,13.60
2021,08,20,04,47,13.60
2021,08,20,04,48,13.50
2021,08,20,04,49,13.50
2021,08,20,04,50,13.50
2021,08,20,04,51,13.40
2021,08,20,04,52,13.40
2021,08,20,04,53,13.40
2021,08,20,04,54,13.30
2021,08,20,04,55,13.30
2021,08,20,04,56,13.30
2021,08,20,04,57,13.30
2021,08,20,04,58,13.20
2021,08,20,04,59,13.20
2021,08,20,05,00,13.20
2021,08,20,05,01,13.20
2021,08,20,05,02,13.20
2021,08,20,05,03,13.10
2021,08,20,05,04,13.10
2021,08,20,05,05,13.10
2021,08,20,05,06,13.10
2021,08,20,05,07,13.10
2021,08,20,05,08,13.00
2021,08,20,05,09,13.00
2021,08,20,05,10,13.00
2021,08,20,05,11,12.90
2021,08,20,05,12,12.90
2021,08,20,05,13,12.90
2021,08,20,05,14,12.90
2021,08,20,05,15,12.80
2021,08,20,05,16,12.80
2021,08,20,05,17,12.80
2021,08,20,05,18,12.80
2021,08,20,05,19,12.80
2021,08,20,05,20,12.80
2021,08,20,05,21,12.70
2021,08,20,05,22,12.70
2021,08,20,05,23,12.70
2021,08,20,05,24,12.70
2021,08,20,05,25,12.70
2021,08,20,05,26,12.60
2021,08,20,05,27,12.60
2021,08,20,05,28,12.60
2021,08,20,05,29,12.60
2021,08,20,05,30,12.60
2021,08,20,05,31,12.60
2021,08,20,05,32,12.60
2021,08,20,05,33,12.60
2021,08,20,05,34,12.50
2021,08,20,05,35,12.50
2021,08,20,05,36,12.50
2021,08,20,05,37,12.50
2021,08,20,05,38,12.40
2021,08,20,05,39,12.40
2021,08,20,05,40,12.40
2021,08,20,05,41,12.40
2021,08,20,05,42,12.40
2021,08,20,05,43,12.40
2021,08,20,05,44,12.40
2021,08,20,05,45,12.40
2021,08,20,05,46,12.40
2021,08,20,05,47,12.40
2021,08,20,05,48,12.30
2021,08,20,05,49,12.30
2021,08,20,05,50,12.40
2021,08,20,05,51,12.40
2021,08,20,05,52,12.30
2021,08,20,05,53,12.30
2021,08,20,05,54,12.30
2021,08,20,05,55,12.30
2021,08,20,05,56,12.30
2021,08,20,05,57,12.30
2021,08,20,05,58,12.30
2021,08,20,05,59,12.30
2021,08,20,06,00,12.30
2021,08,20,06,01,12.30
2021,08,20,06,02,12.30
2021,08,20,06,03,12.30
2021,08,20,06,04,12.30
2021,08,20,06,05,12.20
2021,08,20,06,06,12.20
2021,08,20,06,07,12.20
2021,08,20,06,08,12.20
2021,08,20,06,09,12.20
2021,08,20,06,10,12.20
2021,08,20,06,11,12.20
2021,08,20,06,12,12.20
2021,08,20,06,13,12.20
2021,08,20,06,14,12.20
2021,08,20,06,15,12.20
2021,08,20,06,16,12.20
2021,08,20,06,17,12.20
2021,08,20,06,18,12.20
2021,08,20,06,19,12.20
2021,08,20,06,20,12.20
2021,08,20,06,21,12.20
2021,08,20,06,22,12.20
2021,08,20,06,23,12.20
2021,08,20,06,24,12.20
2021,08,20,06,25,12.20
2021,08,20,06,26,12.20
2021,08,20,06,27,12.10
2021,08,20,06,28,12.10
2021,08,20,06,29,12.10
2021,08,20,06,30,12.10
2021,08,20,06,31,12.10
2021,08,20,06,32,12.10
2021,08,20,06,33,12.10
2021,08,20,06,34,12.10
2021,08,20,06,35,12.10
2021,08,20,06,36,12.10
2021,08,20,06,37,12.10
2021,08,20,06,38,12.10
2021,08,20,06,39,12.10
2021,08,20,06,40,12.10
2021,08,20,06,41,12.10
2021,08,20,06,42,12.10
2021,08,20,06,43,12.10
2021,08,20,06,44,12.10
2021,08,20,06,45,12.10
2021,08,20,06,46,12.10
2021,08,20,06,47,12.10
2021,08,20,06,48,12.10
2021,08,20,06,49,12.10
2021,08,20,06,50,12.10
2021,08,20,06,51,12.10
2021,08,20,06,52,12.10
2021,08,20,06,53,12.00
2021,08,20,06,54,12.00
2021,08,20,06,55,12.00
2021,08,20,06,56,12.00
2021,08,20,06,57,12.00
2021,08,20,06,58,11.90
2021,08,20,06,59,11.90
2021,08,20,07,00,11.90
2021,08,20,07,01,11.90
2021,08,20,07,02,11.90
2021,08,20,07,03,11.90
2021,08,20,07,04,11.90
2021,08,20,07,05,11.90
2021,08,20,07,06,11.90
2021,08,20,07,07,11.90
2021,08,20,07,08,11.80
2021,08,20,07,09,11.80
2021,08,20,07,10,11.80
2021,08,20,07,11,11.80
2021,08,20,07,12,11.80
2021,08,20,07,13,11.80
2021,08,20,07,14,11.80
2021,08,20,07,15,11.80
2021,08,20,07,16,11.80
2021,08,20,07,17,11.80
2021,08,20,07,18,11.80
2021,08,20,07,19,11.80
2021,08,20,07,20,11.80
2021,08,20,07,21,11.80
2021,08,20,07,22,11.80
2021,08,20,07,23,11.80
2021,08,20,07,24,11.80
2021,08,20,07,25,11.80
2021,08,20,07,26,11.80
2021,08,20,07,27,11.80
2021,08,20,07,28,11.80
2021,08,20,07,29,11.80
2021,08,20,07,30,11.80
2021,08,20,07,31,11.90
2021,08,20,07,32,11.90
2021,08,20,07,33,11.90
2021,08,20,07,34,11.90
2021,08,20,07,35,12.00
2021,08,20,07,36,12.00
2021,08,20,07,37,12.00
2021,08,20,07,38,12.00
2021,08,20,07,39,12.00
2021,08,20,07,40,12.00
2021,08,20,07,41,12.10
2021,08,20,07,42,12.10
2021,08,20,07,43,12.10
2021,08,20,07,44,12.10
2021,08,20,07,45,12.10
2021,08,20,07,46,12.10
2021,08,20,07,47,12.10
2021,08,20,07,48,12.10
2021,08,20,07,49,12.20
2021,08,20,07,50,12.20
2021,08,20,07,51,12.20
2021,08,20,07,52,12.20
2021,08,20,07,53,12.20
2021,08,20,07,54,12.20
2021,08,20,07,55,12.30
2021,08,20,07,56,12.30
2021,08,20,07,57,12.30
2021,08,20,07,58,12.30
2021,08,20,07,59,12.40
2021,08,20,08,00,12.40
2021,08,20,08,01,12.50
2021,08,20,08,02,12.50
2021,08,20,08,03,12.60
2021,08,20,08,04,12.60
2021,08,20,08,05,12.70
2021,08,20,08,06,12.80
2021,08,20,08,07,12.80
2021,08,20,08,08,12.80
2021,08,20,08,09,12.80
2021,08,20,08,10,12.80
2021,08,20,08,11,12.90
2021,08,20,08,12,12.90
2021,08,20,08,13,12.90
2021,08,20,08,14,12.90
2021,08,20,08,15,12.90
2021,08,20,08,16,12.90
2021,08,20,08,17,12.90
2021,08,20,08,18,13.00
2021,08,20,08,19,13.00
2021,08,20,08,20,13.00
2021,08,20,08,21,13.10
2021,08,20,08,22,13.10
2021,08,20,08,23,13.10
2021,08,20,08,24,13.20
2021,08,20,08,25,13.20
2021,08,20,08,26,13.30
2021,08,20,08,27,13.30
2021,08,20,08,28,13.40
2021,08,20,08,29,13.50
2021,08,20,08,30,13.50
2021,08,20,08,31,13.50
2021,08,20,08,32,13.60
2021,08,20,08,33,13.70
2021,08,20,08,34,13.70
2021,08,20,08,35,13.80
2021,08,20,08,36,13.80
2021,08,20,08,37,13.80
2021,08,20,08,38,13.90
2021,08,20,08,39,14.00
2021,08,20,08,40,14.10
2021,08,20,08,41,14.20
2021,08,20,08,42,14.30
2021,08,20,08,43,14.40
2021,08,20,08,44,14.60
2021,08,20,08,45,14.70
2021,08,20,08,46,14.80
2021,08,20,08,47,14.90
2021,08,20,08,48,15.00
2021,08,20,08,49,15.00
2021,08,20,08,50,15.10
2021,08,20,08,51,15.10
2021,08,20,08,52,15.20
2021,08,20,08,53,15.30
2021,08,20,08,54,15.30
2021,08,20,08,55,15.40
2021,08,20,08,56,15.50
2021,08,20,08,57,15.50
2021,08,20,08,58,15.60
2021,08,20,08,59,15.60
2021,08,20,09,00,15.60
2021,08,20,09,01,15.70
2021,08,20,09,02,15.70
2021,08,20,09,03,15.80
2021,08,20,09,04,15.80
2021,08,20,09,05,15.80
2021,08,20,09,06,15.90
2021,08,20,09,07,15.90
2021,08,20,09,08,16.00
2021,08,20,09,09,16.10
2021,08,20,09,10,16.10
2021,08,20,09,11,16.20
2021,08,20,09,12,16.20
2021,08,20,09,13,16.20
2021,08,20,09,14,16.20
2021,08,20,09,15,16.20
2021,08,20,09,16,16.20
2021,08,20,09,17,16.20
2021,08,20,09,18,16.20
2021,08,20,09,19,16.20
2021,08,20,09,20,16.20
2021,08,20,09,21,16.30
2021,08,20,09,22,16.30
2021,08,20,09,23,16.40
2021,08,20,09,24,16.40
2021,08,20,09,25,16.40
2021,08,20,09,26,16.40
2021,08,20,09,27,16.40
2021,08,20,09,28,16.40
2021,08,20,09,29,16.50
2021,08,20,09,30,16.50
2021,08,20,09,31,16.60
2021,08,20,09,32,16.60
2021,08,20,09,33,16.70
2021,08,20,09,34,16.70
2021,08,20,09,35,16.80
2021,08,20,09,36,16.80
2021,08,20,09,37,16.90
2021,08,20,09,38,16.90
2021,08,20,09,39,17.00
2021,08,20,09,40,17.10
2021,08,20,09,41,17.10
2021,08,20,09,42,17.10
2021,08,20,09,43,17.20
2021,08,20,09,44,17.30
2021,08,20,09,45,17.30
2021,08,20,09,46,17.30
2021,08,20,09,47,17.30
2021,08,20,09,48,17.30
2021,08,20,09,49,17.30
2021,08,20,09,50,17.30
2021,08,20,09,51,17.40
2021,08,20,09,52,17.40
2021,08,20,09,53,17.50
2021,08,20,09,54,17.60
2021,08,20,09,55,17.70
2021,08,20,09,56,17.60
2021,08,20,09,57,17.60
2021,08,20,09,58,17.60
2021,08,20,09,59,17.60
2021,08,20,10,00,17.70
2021,08,20,10,01,17.70
2021,08,20,10,02,17.70
2021,08,20,10,03,17.80
2021,08,20,10,04,17.80
2021,08,20,10,05,17.80
2021,08,20,10,06,17.80
2021,08,20,10,07,17.80
2021,08,20,10,08,17.90
2021,08,20,10,09,17.90
2021,08,20,10,10,17.90
2021,08,20,10,11,17.90
2021,08,20,10,12,18.00
2021,08,20,10,13,18.00
2021,08,20,10,14,18.10
2021,08,20,10,15,18.10
2021,08,20,10,16,18.20
2021,08,20,10,17,18.20
2021,08,20,10,18,18.30
2021,08,20,10,19,18.40
2021,08,20,10,20,18.40
2021,08,20,10,21,18.40
2021,08,20,10,22,18.50
2021,08,20,10,23,18.40
2021,08,20,10,24,18.40
2021,08,20,10,25,18.40
2021,08,20,10,26,18.40
2021,08,20,10,27,18.40
2021,08,20,10,28,18.40
2021,08,20,10,29,18.30
2021,08,20,10,30,18.40
2021,08,20,10,31,18.50
2021,08,20,10,32,18.50
2021,08,20,10,33,18.50
2021,08,20,10,34,18.50
2021,08,20,10,35,18.60
2021,08,20,10,36,18.60
2021,08,20,10,37,18.60
2021,08,20,10,38,18.70
2021,08,20,10,39,18.80
2021,08,20,10,40,18.80
2021,08,20,10,41,18.90
2021,08,20,10,42,18.90
2021,08,20,10,43,18.90
2021,08,20,10,44,18.90
2021,08,20,10,45,18.90
2021,08,20,10,46,18.90
2021,08,20,10,47,19.00
2021,08,20,10,48,19.00
2021,08,20,10,49,19.10
2021,08,20,10,50,19.00
2021,08,20,10,51,19.00
2021,08,20,10,52,19.00
2021,08,20,10,53,19.00
2021,08,20,10,54,19.00
2021,08,20,10,55,19.00
2021,08,20,10,56,19.00
2021,08,20,10,57,19.00
2021,08,20,10,58,19.10
2021,08,20,10,59,19.10
2021,08,20,11,00,19.10
2021,08,20,11,01,19.20
2021,08,20,11,02,19.10
2021,08,20,11,03,19.10
2021,08,20,11,04,19.20
2021,08,20,11,05,19.20
2021,08,20,11,06,19.30
2021,08,20,11,07,19.30
2021,08,20,11,08,19.30
2021,08,20,11,09,19.30
2021,08,20,11,10,19.30
2021,08,20,11,11,19.30
2021,08,20,11,12,19.40
2021,08,20,11,13,19.40
2021,08,20,11,14,19.50
2021,08,20,11,15,19.60
2021,08,20,11,16,19.60
2021,08,20,11,17,19.70
2021,08,20,11,18,19.70
2021,08,20,11,19,19.80
2021,08,20,11,20,19.90
2021,08,20,11,21,19.90
2021,08,20,11,22,20.00
2021,08,20,11,23,20.00
2021,08,20,11,24,20.10
2021,08,20,11,25,20.10
2021,08,20,11,26,20.10
2021,08,20,11,27,20.10
2021,08,20,11,28,20.20
2021,08,20,11,29,20.30
2021,08,20,11,30,20.30
2021,08,20,11,31,20.40
2021,08,20,11,32,20.50
2021,08,20,11,33,20.50
2021,08,20,11,34,20.50
2021,08,20,11,35,20.30
2021,08,20,11,36,20.20
2021,08,20,11,37,20.30
2021,08,20,11,38,20.40
2021,08,20,11,39,20.50
2021,08,20,11,40,20.60
2021,08,20,11,41,20.60
2021,08,20,11,42,20.70
2021,08,20,11,43,20.70
2021,08,20,11,44,20.70
2021,08,20,11,45,20.80
2021,08,20,11,46,20.80
2021,08,20,11,47,20.80
2021,08,20,11,48,20.90
2021,08,20,11,49,21.10
2021,08,20,11,50,21.20
2021,08,20,11,51,21.20
2021,08,20,11,52,21.20
2021,08,20,11,53,21.20
2021,08,20,11,54,21.10
2021,08,20,11,55,21.00
2021,08,20,11,56,20.90
2021,08,20,11,57,20.90
2021,08,20,11,58,20.90
2021,08,20,11,59,20.80
2021,08,20,12,00,20.80
2021,08,20,12,01,20.80
2021,08,20,12,02,20.80
2021,08,20,12,03,20.80
2021,08,20,12,04,20.80
2021,08,20,12,05,20.80
2021,08,20,12,06,20.80
2021,08,20,12,07,20.90
2021,08,20,12,08,20.90
2021,08,20,12,09,20.90
2021,08,20,12,10,20.90
2021,08,20,12,11,21.10
2021,08,20,12,12,21.10
2021,08,20,12,13,21.10
2021,08,20,12,14,21.10
2021,08,20,12,15,21.10
2021,08,20,12,16,21.10
2021,08,20,12,17,21.20
2021,08,20,12,18,21.20
2021,08,20,12,19,21.30
2021,08,20,12,20,21.30
2021,08,20,12,21,21.40
2021,08,20,12,22,21.40
2021,08,20,12,23,21.40
2021,08,20,12,24,21.40
2021,08,20,12,25,21.40
2021,08,20,12,26,21.50
2021,08,20,12,27,21.50
2021,08,20,12,28,21.60
2021,08,20,12,29,21.60
2021,08,20,12,30,21.80
2021,08,20,12,31,21.80
2021,08,20,12,32,21.80
2021,08,20,12,33,21.80
2021,08,20,12,34,21.80
2021,08,20,12,35,21.80
2021,08,20,12,36,21.80
2021,08,20,12,37,21.80
2021,08,20,12,38,21.90
2021,08,20,12,39,21.90
2021,08,20,12,40,21.90
2021,08,20,12,41,21.90
2021,08,20,12,42,21.80
2021,08,20,12,43,21.80
2021,08,20,12,44,21.80
2021,08,20,12,45,21.70
2021,08,20,12,46,21.70
2021,08,20,12,47,21.70
2021,08,20,12,48,21.80
2021,08,20,12,49,21.80
2021,08,20,12,50,21.90
2021,08,20,12,51,22.00
2021,08,20,12,52,22.00
2021,08,20,12,53,22.00
2021,08,20,12,54,22.10
2021,08,20,12,55,22.20
2021,08,20,12,56,22.20
2021,08,20,12,57,22.20
2021,08,20,12,58,22.20
2021,08,20,12,59,22.20
2021,08,20,13,00,22.20
2021,08,20,13,01,22.20
2021,08,20,13,02,22.30
2021,08,20,13,03,22.40
2021,08,20,13,04,22.40
2021,08,20,13,05,22.40
2021,08,20,13,06,22.40
2021,08,20,13,07,22.50
2021,08,20,13,08,22.50
2021,08,20,13,09,22.50
2021,08,20,13,10,22.60
2021,08,20,13,11,22.60
2021,08,20,13,12,22.60
2021,08,20,13,13,22.70
2021,08,20,13,14,22.70
2021,08,20,13,15,22.80
2021,08,20,13,16,22.80
2021,08,20,13,17,22.80
2021,08,20,13,18,22.90
2021,08,20,13,19,22.90
2021,08,20,13,20,22.90
2021,08,20,13,21,22.80
2021,08,20,13,22,22.70
2021,08,20,13,23,22.70
2021,08,20,13,24,22.70
2021,08,20,13,25,22.70
2021,08,20,13,26,22.70
2021,08,20,13,27,22.80
2021,08,20,13,28,22.90
2021,08,20,13,29,22.90
2021,08,20,13,30,23.00
2021,08,20,13,31,23.10
2021,08,20,13,32,23.00
2021,08,20,13,33,22.90
2021,08,20,13,34,22.90
2021,08,20,13,35,23.00
2021,08,20,13,36,22.90
2021,08,20,13,37,22.90
2021,08,20,13,38,22.90
2021,08,20,13,39,22.90
2021,08,20,13,40,23.00
2021,08,20,13,41,23.10
2021,08,20,13,42,23.20
2021,08,20,13,43,23.20
2021,08,20,13,44,23.20
2021,08,20,13,45,23.30
2021,08,20,13,46,23.40
2021,08,20,13,47,23.50
2021,08,20,13,48,23.50
2021,08,20,13,49,23.40
2021,08,20,13,50,23.30
2021,08,20,13,51,23.30
2021,08,20,13,52,23.30
2021,08,20,13,53,23.40
2021,08,20,13,54,23.40
2021,08,20,13,55,23.50
2021,08,20,13,56,23.50
2021,08,20,13,57,23.60
2021,08,20,13,58,23.60
2021,08,20,13,59,23.70
2021,08,20,14,00,23.70
2021,08,20,14,01,23.70
2021,08,20,14,02,23.60
2021,08,20,14,03,23.60
2021,08,20,14,04,23.60
2021,08,20,14,05,23.70
2021,08,20,14,06,23.70
2021,08,20,14,07,23.80
2021,08,20,14,08,23.80
2021,08,20,14,09,23.80
2021,08,20,14,10,23.70
2021,08,20,14,11,23.70
2021,08,20,14,12,23.60
2021,08,20,14,13,23.50
2021,08,20,14,14,23.60
2021,08,20,14,15,23.70
2021,08,20,14,16,23.70
2021,08,20,14,17,23.70
2021,08,20,14,18,23.70
2021,08,20,14,19,23.70
2021,08,20,14,20,23.80
2021,08,20,14,21,23.80
2021,08,20,14,22,23.90
2021,08,20,14,23,23.90
2021,08,20,14,24,23.90
2021,08,20,14,25,23.90
2021,08,20,14,26,23.90
2021,08,20,14,27,23.80
2021,08,20,14,28,23.80
2021,08,20,14,29,23.70
2021,08,20,14,30,23.70
2021,08,20,14,31,23.80
2021,08,20,14,32,23.80
2021,08,20,14,33,23.80
2021,08,20,14,34,23.80
2021,08,20,14,35,23.80
2021,08,20,14,36,23.90
2021,08,20,14,37,23.80
2021,08,20,14,38,23.90
2021,08,20,14,39,23.90
2021,08,20,14,40,23.90
2021,08,20,14,41,24.00
2021,08,20,14,42,24.00
2021,08,20,14,43,24.00
2021,08,20,14,44,24.00
2021,08,20,14,45,24.10
2021,08,20,14,46,24.20
2021,08,20,14,47,24.20
2021,08,20,14,48,24.30
2021,08,20,14,49,24.30
2021,08,20,14,50,24.30
2021,08,20,14,51,24.40
2021,08,20,14,52,24.40
2021,08,20,14,53,24.30
2021,08,20,14,54,24.30
2021,08,20,14,55,24.30
2021,08,20,14,56,24.40
2021,08,20,14,57,24.40
2021,08,20,14,58,24.40
2021,08,20,14,59,24.30
2021,08,20,15,00,24.20
2021,08,20,15,01,24.20
2021,08,20,15,02,24.30
2021,08,20,15,03,24.40
2021,08,20,15,04,24.50
2021,08,20,15,05,24.60
2021,08,20,15,06,24.60
2021,08,20,15,07,24.70
2021,08,20,15,08,24.80
2021,08,20,15,09,24.70
2021,08,20,15,10,24.70
2021,08,20,15,11,24.70
2021,08,20,15,12,24.60
2021,08,20,15,13,24.50
2021,08,20,15,14,24.50
2021,08,20,15,15,24.50
2021,08,20,15,16,24.60
2021,08,20,15,17,24.70
2021,08,20,15,18,24.70
2021,08,20,15,19,24.80
2021,08,20,15,20,24.90
2021,08,20,15,21,24.90
2021,08,20,15,22,24.90
2021,08,20,15,23,24.90
2021,08,20,15,24,24.90
2021,08,20,15,25,24.90
2021,08,20,15,26,24.90
2021,08,20,15,27,24.80
2021,08,20,15,28,24.80
2021,08,20,15,29,24.80
2021,08,20,15,30,24.80
2021,08,20,15,31,24.70
2021,08,20,15,32,24.60
2021,08,20,15,33,24.70
2021,08,20,15,34,24.70
2021,08,20,15,35,24.70
2021,08,20,15,36,24.60
2021,08,20,15,37,24.50
2021,08,20,15,38,24.50
2021,08,20,15,39,24.50
2021,08,20,15,40,24.50
2021,08,20,15,41,24.60
2021,08,20,15,42,24.70
2021,08,20,15,43,24.80
2021,08,20,15,44,24.90
2021,08,20,15,45,25.00
2021,08,20,15,46,25.10
2021,08,20,15,47,25.10
2021,08,20,15,48,25.20
2021,08,20,15,49,25.20
2021,08,20,15,50,25.10
2021,08,20,15,51,25.00
2021,08,20,15,52,25.00
2021,08,20,15,53,25.00
2021,08,20,15,54,25.00
2021,08,20,15,55,25.00
2021,08,20,15,56,24.80
2021,08,20,15,57,24.70
2021,08,20,15,58,24.70
2021,08,20,15,59,24.70
2021,08,20,16,00,24.80
2021,08,20,16,01,24.80
2021,08,20,16,02,24.80
2021,08,20,16,03,24.80
2021,08,20,16,04,24.70
2021,08,20,16,05,24.80
2021,08,20,16,06,24.70
2021,08,20,16,07,24.70
2021,08,20,16,08,24.70
2021,08,20,16,09,24.70
2021,08,20,16,10,24.70
2021,08,20,16,11,24.80
2021,08,20,16,12,24.80
2021,08,20,16,13,24.90
2021,08,20,16,14,25.00
2021,08,20,16,15,25.00
2021,08,20,16,16,25.00
2021,08,20,16,17,25.10
2021,08,20,16,18,25.20
2021,08,20,16,19,25.30
2021,08,20,16,20,25.30
2021,08,20,16,21,25.40
2021,08,20,16,22,25.40
2021,08,20,16,23,25.40
2021,08,20,16,24,25.40
2021,08,20,16,25,25.30
2021,08,20,16,26,25.30
2021,08,20,16,27,25.30
2021,08,20,16,28,25.40
2021,08,20,16,29,25.40
2021,08,20,16,30,25.30
2021,08,20,16,31,25.20
2021,08,20,16,32,25.20
2021,08,20,16,33,25.20
2021,08,20,16,34,25.20
2021,08,20,16,35,25.00
2021,08,20,16,36,25.00
2021,08,20,16,37,24.90
2021,08,20,16,38,24.90
2021,08,20,16,39,24.90
2021,08,20,16,40,24.80
2021,08,20,16,41,24.80
2021,08,20,16,42,24.80
2021,08,20,16,43,24.80
2021,08,20,16,44,24.80
2021,08,20,16,45,24.80
2021,08,20,16,46,24.80
2021,08,20,16,47,24.80
2021,08,20,16,48,24.80
2021,08,20,16,49,24.80
2021,08,20,16,50,24.80
2021,08,20,16,51,24.80
2021,08,20,16,52,24.80
2021,08,20,16,53,24.80
2021,08,20,16,54,24.80
2021,08,20,16,55,24.80
2021,08,20,16,56,24.80
2021,08,20,16,57,24.80
2021,08,20,16,58,24.90
2021,08,20,16,59,25.00
2021,08,20,17,00,25.10
2021,08,20,17,01,25.10
2021,08,20,17,02,25.20
2021,08,20,17,03,25.30
2021,08,20,17,04,25.40
2021,08,20,17,05,25.50
2021,08,20,17,06,25.50
2021,08,20,17,07,25.50
2021,08,20,17,08,25.40
2021,08,20,17,09,25.40
2021,08,20,17,10,25.30
2021,08,20,17,11,25.30
2021,08,20,17,12,25.30
2021,08,20,17,13,25.30
2021,08,20,17,14,25.30
2021,08,20,17,15,25.30
2021,08,20,17,16,25.30
2021,08,20,17,17,25.30
2021,08,20,17,18,25.20
2021,08,20,17,19,25.20